Alamosa, CO

9:23 AM MDT on June 28, 2017 (GMT -0600)
San Luis Valley Regional / Bergman Field

Weather History for KALS - September, 2011

Change the Weather History Date:

Friday, September 2, 2011

  Actual Average Record
Temperature  
Mean Temperature 66 °F 60 °F  
Max Temperature 83 °F 77 °F 85 °F (1958)
Min Temperature 48 °F 42 °F 30 °F (1959)
Degree Days  
Heating Degree Days 0 5  
Month to date heating degree days 0 10  
Since 1 July heating degree days 13 139  
Cooling Degree Days 1 0  
Month to date cooling degree days 1 0  
Year to date cooling degree days 182 51  
Growing Degree Days 16 (Base 50)    
Moisture  
Dew Point 47 °F    
Average Humidity 57    
Maximum Humidity 89    
Minimum Humidity 24    
Precipitation  
Precipitation T in 0.04 in 0.48 in (1965)
Month to date precipitation 0.02 0.08  
Year to date precipitation 2.21 5.03  
Snow  
Snow 0.00 in 0.00 in 0.00 in (2002)
Month to date snowfall 0.0 0.0  
Since 1 July snowfall 0.0 0.0  
Since 1 September snowfall 0.0 0.0  
Snow Depth 0.00 in    
Sea Level Pressure  
Sea Level Pressure 30.08 in    
Wind  
Wind Speed 4 mph (North)    
Max Wind Speed 28 mph    
Max Gust Speed 36 mph    
Visibility 10 miles    
Events Rain , Thunderstorm    
T = Trace of Precipitation, MM = Missing Value Source: NWS Daily Summary

Daily Weather History Graph

Daily Weather History Graph

Search for Another Location

Airport or City:

Trip Planner

Search our weather history database for the weather conditions in past years. The results will help you decide how hot, cold, wet, or windy it might be!

Date:

Astronomy

Sep. 02, 2011 Rise Set
Actual Time 6:34 AM MDT 7:31 PM MDT
Civil Twilight 6:07 AM MDT 7:57 PM MDT
Nautical Twilight 5:36 AM MDT 8:29 PM MDT
Astronomical Twilight 5:03 AM MDT 9:02 PM MDT
Moon 12:01 PM MDT (9/2) 10:17 PM MDT (9/2)
Length of Visible Light 13h 50m
Length of Day
12h 56m
Waxing Crescent, 28% of the Moon is Illuminated
Sep 2
Waxing Crescent
Sep 4
First Quarter
Sep 12
Full
Sep 20
Last Quarter
Sep 27
New

Hourly Weather History & Observations

Time (MDT) Temp. Dew Point Humidity Pressure Visibility Wind Dir Wind Speed Gust Speed Precip Events Conditions
12:52 AM 57.9 °F 52.0 °F 81% 30.01 in 10.0 mi South 11.5 mph - 0.00 in   Overcast
1:52 AM 55.9 °F 51.1 °F 84% 30.00 in 10.0 mi East 4.6 mph - N/A   Clear
2:52 AM 55.9 °F 52.0 °F 87% 29.98 in 10.0 mi ESE 5.8 mph - N/A   Mostly Cloudy
3:52 AM 54.0 °F 50.0 °F 86% 29.99 in 10.0 mi East 3.5 mph - N/A   Partly Cloudy
4:52 AM 55.0 °F 50.0 °F 83% 30.00 in 10.0 mi Calm Calm - N/A   Clear
5:52 AM 55.4 °F 51.8 °F 88% 30.28 in 10.0 mi Calm Calm - N/A   Clear
6:52 AM 51.1 °F 48.9 °F 92% 30.03 in 10.0 mi WNW 4.6 mph - N/A   Clear
7:52 AM 55.4 °F 51.8 °F 88% 30.30 in 10.0 mi West 3.5 mph - N/A   Clear
8:52 AM 61.0 °F 51.1 °F 70% 30.04 in 10.0 mi Calm Calm - N/A   Clear
9:52 AM 64.9 °F 52.0 °F 63% 30.03 in 10.0 mi Variable 3.5 mph - N/A   Clear
10:52 AM 69.1 °F 50.0 °F 51% 30.03 in 10.0 mi Variable 3.5 mph - N/A   Clear
11:52 AM 75.2 °F 48.2 °F 38% 30.29 in 10.0 mi NW 5.8 mph - N/A   Clear
12:52 PM 77.0 °F 46.9 °F 34% 29.95 in 10.0 mi NW 5.8 mph - N/A   Clear
1:52 PM 80.1 °F 43.0 °F 27% 29.93 in 10.0 mi Calm Calm - N/A   Clear
2:52 PM 79.0 °F 41.0 °F 26% 29.90 in 10.0 mi North 5.8 mph - N/A   Mostly Cloudy
3:52 PM 82.0 °F 42.1 °F 24% 29.88 in 10.0 mi SSW 8.1 mph - N/A   Mostly Cloudy
4:52 PM 71.6 °F 44.6 °F 38% 30.22 in 10.0 mi West 21.9 mph 32.2 mph N/A Thunderstorm Mostly Cloudy
5:00 PM 69.8 °F 42.8 °F 38% 30.22 in 10.0 mi NNW 23.0 mph 35.7 mph N/A Thunderstorm Mostly Cloudy
5:10 PM 69.8 °F 42.8 °F 38% 30.22 in 10.0 mi North 16.1 mph 32.2 mph N/A Thunderstorm Mostly Cloudy
5:21 PM 69.8 °F 42.8 °F 38% 30.21 in 10.0 mi North 16.1 mph - 0.00 in Rain Light Rain
5:28 PM 69.8 °F 42.8 °F 38% 30.21 in 9.0 mi North 15.0 mph 27.6 mph 0.00 in Rain , Thunderstorm Light Thunderstorms and Rain
5:43 PM 69.8 °F 44.6 °F 40% 30.19 in 10.0 mi NNE 6.9 mph 18.4 mph 0.00 in Rain Light Rain
5:52 PM 70.0 °F 45.0 °F 41% 29.92 in 10.0 mi NNE 9.2 mph 25.3 mph 0.00 in   Scattered Clouds
6:06 PM 69.8 °F 46.4 °F 43% 30.20 in 10.0 mi NNE 16.1 mph - N/A Thunderstorm Thunderstorm
6:39 PM 69.8 °F 48.2 °F 46% 30.20 in 10.0 mi ESE 6.9 mph - 0.00 in Rain Light Rain
6:52 PM 71.1 °F 46.0 °F 41% 29.94 in 10.0 mi East 4.6 mph - 0.00 in   Partly Cloudy
7:52 PM 62.6 °F 46.4 °F 55% 30.21 in 10.0 mi North 4.6 mph - N/A   Clear
8:52 PM 60.1 °F 48.9 °F 67% 29.97 in 10.0 mi NW 3.5 mph - N/A   Scattered Clouds
9:52 PM 57.9 °F 48.0 °F 70% 29.98 in 10.0 mi Calm Calm - N/A   Mostly Cloudy
10:52 PM 54.0 °F 48.0 °F 80% 29.99 in 10.0 mi Calm Calm - N/A   Mostly Cloudy
11:52 PM 51.8 °F 46.4 °F 82% 30.25 in 10.0 mi WSW 4.6 mph - N/A   Clear